sat.trackr.live / text

‹ back to catalog

STARLINK-2459

NORAD 48119 · 2021-027AD

PAYLOAD ACTIVE UNKNOWN

§ Identity

Operator
Country
US
Launch date
2021-04-07
Launch site
AFETR
Launch vehicle
Mass (kg)
RCS (m²)

Purposes: comms

External: N2YO · Heavens-Above · Gunter

§ Orbital elements

Epoch: 2026-09-09T21:56:49.545312Z

Period
94.01 min
Inclination
53.1600°
Eccentricity
0.0000827
Mean motion
15.31715787 rev/d
Perigee alt
470.1 km
Apogee alt
471.3 km
Semi-major
6,848.8 km
B*
1.3342e-4
RAAN
15.0852°
Arg perigee
91.0944°
Mean anomaly
269.0152°
Rev number
30,090

§ Raw data

STARLINK-24591 48119U 21027AD  26252.91446233  .00003779  00000+0  13342-3 0  99952 48119  53.1600  15.0852 0000827  91.0944 269.0152 15.31715787300907

JSON: /api/v1/satellites/48119 · /tle

For live sub-satellite position, see the globe view (requires WebGL).

§ Visibility from observer

Set your observer location to see the next 7 days of passes ≥ 10°. The values pass through the URL so the page stays shareable.

No JS? Fill the form by hand. The geolocation button needs JavaScript.